RH
55 55 55 53 50 46 44 43 42 41 41 41 41 42 41 39 37 35 32 29 27 26 27 28 28 29 31 33 36 41 45 48 49 51 56 61 62 63 68 76 87 92 87 85 91 93 95 98 98 97 98 99 99 97 97 97 98 98 98 99 99 99 99
61 60 60 58 55 52 49 48 47 46 45 44 43 42 41 39 37 35 33 31 29 29 30 30 30 33 34 33 33 38 44 50 53 52 51 55 60 63 63 63 67 75 80 83 90 95 95 97 98 98 98 98 98 98 98 98 98 98 99 99 100 99 98
65 64 64 61 58 56 54 52 52 51 49 48 46 44 41 39 36 34 31 30 31 32 33 33 34 38 40 37 37 38 41 44 50 55 55 53 55 59 63 64 62 62 65 70 79 90 96 98 98 99 99 99 99 98 99 100 99 98 97 98 98 99 99
69 67 64 63 62 62 59 57 56 55 54 52 49 46 43 40 36 33 31 29 30 32 35 38 40 41 42 41 41 40 40 41 43 48 54 57 56 55 58 63 65 64 62 60 64 72 83 93 99 100 99 99 100 100 99 100 99 98 96 96 97 98 99
74 70 67 65 65 64 63 61 60 60 59 56 52 48 44 40 36 34 32 31 31 32 35 41 44 44 43 42 42 42 41 41 41 42 48 54 58 57 56 58 63 66 66 62 60 62 67 77 90 98 100 100 99 99 99 100 99 98 96 96 97 97 98
77 74 72 71 69 67 66 64 62 62 61 58 55 51 46 41 38 36 35 35 34 34 36 41 43 44 45 44 43 43 42 41 40 41 44 49 55 59 59 58 59 62 66 66 64 63 64 67 73 84 94 99 101 100 99 99 99 98 98 98 98 98 97
81 79 77 76 74 72 70 67 64 63 62 60 57 53 49 45 42 39 38 37 36 38 41 43 42 42 44 46 45 44 42 41 40 40 43 47 52 56 59 61 62 61 63 67 68 67 68 69 70 73 80 89 96 100 101 101 100 100 99 99 100 100 99
85 85 84 82 81 78 75 71 68 68 66 63 60 56 51 47 43 40 40 39 39 40 42 42 42 42 43 45 47 46 44 43 42 41 43 45 51 55 57 59 64 66 66 67 70 70 70 71 74 75 75 78 84 90 95 99 100 101 101 100 100 99 99
90 90 90 88 86 83 79 76 74 73 70 68 65 61 55 49 43 40 40 41 41 42 42 41 42 43 43 43 45 46 45 44 44 44 45 47 50 56 59 59 62 67 69 71 73 74 73 73 77 79 80 79 79 81 84 87 90 93 95 97 99 99 98
93 93 92 89 86 83 81 79 78 76 74 72 68 64 58 52 47 45 45 46 46 45 44 43 43 44 45 45 44 44 44 45 47 47 48 50 52 57 61 63 64 65 67 70 74 77 78 77 78 81 82 82 81 80 81 81 82 83 84 86 89 92 94
92 91 89 88 86 84 83 82 79 77 74 71 68 64 59 55 53 53 53 51 51 49 47 46 46 46 48 48 48 46 45 45 47 49 50 52 56 60 63 65 67 67 66 67 70 75 78 80 80 81 83 83 82 82 82 82 82 82 82 81 81 82 83
90 89 89 88 87 86 85 82 79 76 73 70 68 64 61 59 59 59 58 57 56 55 53 51 51 51 53 54 53 52 50 48 47 48 49 51 56 61 65 66 67 69 68 68 69 72 75 78 79 80 81 82 83 83 83 83 83 83 83 83 82 81 81
88 89 88 88 88 88 86 83 80 77 74 71 69 67 67 67 65 62 60 59 58 57 56 55 56 59 61 61 57 55 54 53 52 52 52 53 55 59 63 66 68 69 69 70 71 73 75 76 77 77 78 79 80 82 84 86 85 85 84 83 82 82 81
84 86 86 87 88 87 85 84 82 78 75 73 72 72 73 71 68 65 62 59 57 57 57 59 63 66 67 66 63 61 61 59 59 59 58 58 58 59 60 62 64 67 69 69 71 73 75 76 76 76 76 76 78 81 83 85 86 87 87 85 84 83 80
82 84 87 89 89 87 86 86 84 81 79 78 78 78 77 73 70 67 64 61 59 59 61 65 69 70 72 72 70 68 67 65 63 63 63 62 61 60 59 59 60 64 66 68 69 71 74 76 78 78 76 76 79 82 83 84 84 84 85 86 85 84 82
85 87 88 90 90 88 87 87 86 85 83 82 84 84 80 76 73 70 68 67 67 68 70 73 74 75 77 77 73 69 67 67 66 65 64 64 63 61 60 58 59 62 64 66 68 70 73 77 79 79 79 79 81 83 84 84 84 84 84 83 83 84 82
88 89 90 90 90 89 88 88 88 87 84 84 87 87 82 78 77 75 75 76 76 76 76 76 77 79 78 76 72 68 65 65 66 67 68 69 68 65 63 61 61 63 64 64 66 68 71 75 77 78 80 81 82 83 83 83 84 85 84 82 79 77 73
89 91 91 90 90 89 87 86 86 84 83 84 87 86 83 82 83 83 84 85 83 80 79 78 78 79 78 77 77 72 67 67 72 76 78 77 74 70 65 62 61 63 64 66 68 69 70 73 75 77 78 78 78 77 77 77 78 78 79 79 77 73 69
90 91 92 91 89 88 87 87 87 88 88 90 91 90 90 91 93 93 93 93 91 86 84 82 81 82 82 84 84 78 72 74 81 84 83 79 75 71 66 63 62 62 63 67 70 70 71 71 71 73 74 75 74 74 73 74 74 75 77 78 77 74 73
89 90 91 91 91 92 92 94 96 97 97 98 98 98 98 98 99 99 98 97 95 92 90 89 89 90 90 90 87 80 78 84 87 85 82 78 73 69 67 66 66 65 66 68 69 69 69 69 69 70 72 73 74 74 73 73 74 75 77 78 78 76 75
91 91 92 93 94 96 98 99 100 100 100 101 101 100 99 99 99 99 98 98 97 97 98 99 99 97 96 95 92 86 87 94 92 85 81 78 72 69 69 70 69 68 68 68 69 68 67 67 67 69 70 72 73 73 73 73 74 75 76 77 78 77 76
93 95 96 97 99 100 100 100 100 100 100 101 101 99 98 98 98 98 98 100 101 102 101 101 99 97 95 97 97 96 97 99 96 89 84 78 72 71 71 70 69 69 68 68 68 67 66 66 66 66 68 69 71 71 70 70 71 72 73 75 75 75 74
93 95 96 98 99 99 99 99 100 100 100 100 100 98 97 97 96 97 99 100 101 101 100 99 97 95 98 101 101 101 99 97 96 93 85 78 74 74 73 70 69 68 67 66 66 64 64 63 62 61 62 63 64 64 65 64 64 64 65 66 67 68 67
93 94 96 97 98 99 99 99 100 100 100 100 99 98 98 98 96 97 99 99 99 98 99 99 97 96 99 100 98 96 95 95 94 90 83 79 78 77 76 73 71 68 66 65 64 63 62 61 59 58 58 57 57 57 57 57 56 55 55 56 58 59 59
93 94 96 98 99 99 99 99 100 100 99 99 100 99 100 100 99 100 100 98 97 97 96 95 94 94 94 93 92 93 92 89 86 81 78 78 77 76 75 74 72 70 68 67 66 64 63 61 60 59 58 56 55 54 53 53 52 52 52 52 53 54 55
94 95 97 98 99 99 99 99 100 100 99 98 99 99 101 101 99 97 96 94 92 91 90 88 88 90 91 90 89 87 83 79 76 74 74 74 72 71 71 70 69 69 68 67 66 66 65 64 63 62 60 59 59 58 56 56 55 54 54 53 53 53 52
96 97 98 98 98 99 100 100 100 100 99 99 98 98 97 95 93 90 88 87 86 84 82 80 81 82 83 82 80 77 74 73 72 72 72 71 70 70 69 68 68 67 67 66 65 64 64 63 62 60 59 58 57 57 55 54 53 53 52 50 50 49 48
97 99 99 98 98 98 99 99 99 98 97 96 95 94 91 89 88 85 82 80 78 76 75 75 74 74 74 73 72 71 71 71 71 70 70 69 68 67 66 65 65 64 62 62 60 59 58 57 56 55 54 53 52 51 50 49 49 48 47 46 45 45 44
92 93 93 92 91 91 92 92 92 92 92 91 90 89 89 88 86 82 76 74 72 71 71 70 69 69 68 68 68 68 68 68 68 67 66 64 63 62 61 60 60 59 58 57 56 55 55 54 54 53 52 51 51 49 48 48 47 46 46 46 45 45 44
78 78 79 79 78 78 78 77 76 77 80 81 83 85 86 86 83 75 69 66 65 64 64 63 63 63 63 63 63 64 64 64 63 63 62 61 61 61 60 60 59 59 58 58 57 57 56 55 54 54 53 52 51 50 49 49 48 47 47 46 45 45 45
68 69 69 68 67 67 64 61 61 62 64 67 71 75 75 73 70 66 62 60 59 59 58 59 59 60 61 61 62 62 63 63 62 62 63 62 62 62 62 61 61 60 59 59 58 57 57 56 55 54 53 52 51 51 50 50 49 49 49 48 48 48 48
65 67 66 63 61 60 57 55 56 57 58 60 64 67 64 58 54 54 54 54 56 57 58 59 60 60 61 62 62 63 63 63 63 64 64 64 63 63 63 62 62 61 61 60 59 58 57 56 54 53 52 51 50 50 49 49 48 48 47 47 47 46 45
65 66 66 64 62 60 57 56 57 57 58 62 63 62 59 55 52 49 48 49 51 53 55 57 58 59 60 61 61 62 63 64 64 65 65 65 64 64 64 63 62 61 60 59 58 56 55 53 52 50 49 48 47 46 45 45 44 44 44 43 42 41 40
65 65 65 64 63 62 60 59 59 60 64 67 65 60 57 57 56 52 48 47 48 50 52 53 54 54 56 57 59 61 63 64 65 65 66 66 65 64 63 62 60 57 56 55 53 52 51 50 49 47 46 46 45 44 44 44 44 43 42 39 38 38 38
67 66 65 65 64 63 62 61 61 65 70 72 68 62 58 56 53 51 47 46 48 50 52 53 53 53 54 56 58 60 62 63 64 65 64 64 62 61 59 57 56 54 53 52 51 50 49 48 47 46 46 46 46 46 46 47 45 42 40 39 39 40 40
69 68 68 66 65 63 62 61 63 67 72 74 70 65 60 54 50 48 46 46 49 51 53 54 54 54 55 57 59 61 64 65 65 65 64 62 60 58 56 55 54 53 52 51 50 49 49 48 48 49 49 49 50 50 50 48 44 41 41 42 43 43 43